Location: Hastringsfeld
(50.9620°N, 10.4787°E)
Time: 04:41:51
(UTC+00:00)

ATLAS 2AS CENTAUR R/B - Pass Details

Date: 26 September 2023
Orbit: 998 x 1213 km, 63.7° (Epoch: 17 November)

Event Time Altitude Azimuth Distance (km) Brightness Sun altitude
Exits shadow 03:33:22 20° 233° (SW) 2,441 4.0 -15.8°
Maximum altitude 03:38:53 75° 317° (NW) 1,201 2.9 -15.0°
Drops below altitude 10° 03:46:05 10° 43° (NE) 2,998 6.0 -13.9°
Sets 03:48:43 0° 45° (NE) 3,928 6.8 -13.5°
